Time,TemperatureF,DewpointF,PressureIn,WindDirection,WindDirectionDegrees,WindSpeedMPH,WindSpeedGustMPH,Humidity,HourlyPrecipIn,Conditions,Clouds,dailyrainin,SoftwareType,DateUTC
2015-08-04 00:05:00,77.5,74.1,29.94,WSW,257,0.0,0.0,89,0.00,,,0.00,meteobridge,2015-08-04 05:05:00,
2015-08-04 00:09:00,77.4,73.9,29.94,WSW,256,0.0,0.0,89,0.00,,,0.00,meteobridge,2015-08-04 05:09:00,
2015-08-04 00:15:00,77.4,73.9,29.94,SSW,194,0.0,1.0,89,0.00,,,0.00,meteobridge,2015-08-04 05:15:00,
2015-08-04 00:20:00,77.2,73.9,29.94,SSW,194,0.0,0.0,90,0.00,,,0.00,meteobridge,2015-08-04 05:20:00,
2015-08-04 00:25:00,76.8,73.6,29.94,SSW,194,0.0,0.0,90,0.00,,,0.00,meteobridge,2015-08-04 05:25:00,
2015-08-04 00:30:00,76.5,73.6,29.94,SSW,194,0.0,0.0,91,0.00,,,0.00,meteobridge,2015-08-04 05:30:00,
2015-08-04 00:35:00,76.3,73.8,29.94,SSW,195,0.0,0.0,92,0.00,,,0.00,meteobridge,2015-08-04 05:35:00,
2015-08-04 00:40:00,76.3,73.8,29.94,SSW,195,0.0,0.0,92,0.00,,,0.00,meteobridge,2015-08-04 05:40:00,
2015-08-04 00:45:00,76.1,73.9,29.94,SSW,195,0.0,0.0,93,0.00,,,0.00,meteobridge,2015-08-04 05:45:00,
2015-08-04 00:50:00,75.9,73.8,29.94,SSW,195,0.0,0.0,93,0.00,,,0.00,meteobridge,2015-08-04 05:50:00,
2015-08-04 00:55:00,75.7,73.6,29.94,SSW,195,0.0,0.0,93,0.00,,,0.00,meteobridge,2015-08-04 05:55:00,
2015-08-04 01:00:00,75.7,73.6,29.94,SSW,195,0.0,0.0,93,0.00,,,0.00,meteobridge,2015-08-04 06:00:00,
2015-08-04 01:05:00,75.6,73.4,29.94,SSW,194,0.0,0.0,93,0.00,,,0.00,meteobridge,2015-08-04 06:05:00,
2015-08-04 01:10:00,75.6,73.8,29.94,West,276,0.0,1.0,94,0.00,,,0.00,meteobridge,2015-08-04 06:10:00,
2015-08-04 01:15:00,75.7,73.6,29.94,West,265,0.0,0.0,93,0.00,,,0.00,meteobridge,2015-08-04 06:15:00,
2015-08-04 01:20:00,75.7,73.6,29.94,West,265,0.0,0.0,93,0.00,,,0.00,meteobridge,2015-08-04 06:20:00,
2015-08-04 01:25:00,75.7,73.6,29.94,West,265,0.9,1.0,93,0.00,,,0.00,meteobridge,2015-08-04 06:25:00,
2015-08-04 01:30:00,75.9,73.8,29.94,WSW,246,0.0,0.0,93,0.00,,,0.00,meteobridge,2015-08-04 06:30:00,
2015-08-04 01:35:00,76.1,73.9,29.94,WSW,245,0.0,0.0,93,0.00,,,0.00,meteobridge,2015-08-04 06:35:00,
2015-08-04 01:40:00,76.1,73.9,29.94,WSW,245,0.0,0.0,93,0.00,,,0.00,meteobridge,2015-08-04 06:40:00,
2015-08-04 01:45:00,76.3,74.1,29.94,West,264,0.0,1.0,93,0.00,,,0.00,meteobridge,2015-08-04 06:45:00,
2015-08-04 01:50:00,76.5,74.3,29.94,WSW,257,0.0,1.0,93,0.00,,,0.00,meteobridge,2015-08-04 06:50:00,
2015-08-04 01:55:00,76.5,73.9,29.95,WSW,242,0.0,0.0,92,0.00,,,0.00,meteobridge,2015-08-04 06:55:00,
2015-08-04 02:01:00,76.3,73.8,29.94,SW,226,0.0,0.0,92,0.00,,,0.00,meteobridge,2015-08-04 07:01:00,
2015-08-04 02:06:00,76.1,73.6,29.95,SW,226,0.0,0.0,92,0.00,,,0.00,meteobridge,2015-08-04 07:06:00,
2015-08-04 02:11:00,75.9,73.8,29.95,SW,226,0.0,0.0,93,0.00,,,0.00,meteobridge,2015-08-04 07:11:00,
2015-08-04 02:16:00,75.7,73.6,29.95,SW,226,0.0,0.0,93,0.00,,,0.00,meteobridge,2015-08-04 07:16:00,
2015-08-04 02:21:00,75.7,73.6,29.95,SW,229,0.0,0.0,93,0.00,,,0.00,meteobridge,2015-08-04 07:21:00,
2015-08-04 02:26:00,75.7,73.9,29.95,WSW,248,0.0,1.0,94,0.00,,,0.00,meteobridge,2015-08-04 07:26:00,
2015-08-04 02:31:00,75.9,74.1,29.95,WSW,245,0.0,0.0,94,0.00,,,0.00,meteobridge,2015-08-04 07:31:00,
2015-08-04 02:36:00,75.9,73.8,29.95,WSW,245,0.0,0.0,93,0.00,,,0.00,meteobridge,2015-08-04 07:36:00,
2015-08-04 02:41:00,75.9,74.1,29.94,WSW,245,0.0,0.0,94,0.00,,,0.00,meteobridge,2015-08-04 07:41:00,
2015-08-04 02:46:00,75.9,74.1,29.95,NNW,345,0.0,1.0,94,0.00,,,0.00,meteobridge,2015-08-04 07:46:00,
2015-08-04 02:51:00,75.9,74.1,29.95,West,262,0.0,0.0,94,0.00,,,0.00,meteobridge,2015-08-04 07:51:00,
2015-08-04 02:56:00,76.1,74.3,29.95,WSW,257,0.0,1.0,94,0.00,,,0.00,meteobridge,2015-08-04 07:56:00,
2015-08-04 03:01:00,76.3,74.5,29.95,WSW,257,0.0,0.0,94,0.00,,,0.00,meteobridge,2015-08-04 08:01:00,
2015-08-04 03:06:00,75.9,73.8,29.94,WSW,254,0.0,0.0,93,0.00,,,0.00,meteobridge,2015-08-04 08:06:00,
2015-08-04 03:11:00,75.6,73.4,29.95,WSW,254,0.0,0.0,93,0.00,,,0.00,meteobridge,2015-08-04 08:11:00,
2015-08-04 03:16:00,75.4,73.2,29.95,WSW,254,0.0,0.0,93,0.00,,,0.00,meteobridge,2015-08-04 08:16:00,
2015-08-04 03:21:00,75.0,72.9,29.94,WSW,254,0.0,0.0,93,0.00,,,0.00,meteobridge,2015-08-04 08:21:00,
2015-08-04 03:26:00,74.8,73.0,29.94,WSW,254,0.0,0.0,94,0.00,,,0.00,meteobridge,2015-08-04 08:26:00,
2015-08-04 03:31:00,74.8,73.0,29.95,WSW,254,0.0,0.0,94,0.00,,,0.00,meteobridge,2015-08-04 08:31:00,
2015-08-04 03:36:00,74.7,72.9,29.95,WSW,254,0.0,0.0,94,0.00,,,0.00,meteobridge,2015-08-04 08:36:00,
2015-08-04 03:41:00,74.5,72.7,29.95,WSW,254,0.0,0.0,94,0.00,,,0.00,meteobridge,2015-08-04 08:41:00,
2015-08-04 03:46:00,74.5,72.7,29.95,WSW,254,0.0,0.0,94,0.00,,,0.00,meteobridge,2015-08-04 08:46:00,
2015-08-04 03:51:00,74.3,72.5,29.95,South,184,0.0,0.0,94,0.00,,,0.00,meteobridge,2015-08-04 08:51:00,
2015-08-04 03:56:00,74.1,72.7,29.95,South,184,0.0,0.0,95,0.00,,,0.00,meteobridge,2015-08-04 08:56:00,
2015-08-04 04:01:00,74.1,72.7,29.95,South,184,0.0,0.0,95,0.00,,,0.00,meteobridge,2015-08-04 09:01:00,
2015-08-04 04:11:00,74.5,73.2,29.95,West,263,0.0,1.0,96,0.00,,,0.00,meteobridge,2015-08-04 09:11:00,
2015-08-04 04:16:00,74.5,73.0,29.96,West,264,0.0,0.0,95,0.00,,,0.00,meteobridge,2015-08-04 09:16:00,
2015-08-04 04:21:00,74.5,73.0,29.96,SSW,193,0.0,0.0,95,0.00,,,0.00,meteobridge,2015-08-04 09:21:00,
2015-08-04 04:26:00,74.3,73.0,29.96,SSW,193,0.0,0.0,96,0.00,,,0.00,meteobridge,2015-08-04 09:26:00,
2015-08-04 04:31:00,74.1,72.7,29.96,SSW,193,0.0,0.0,95,0.00,,,0.00,meteobridge,2015-08-04 09:31:00,
2015-08-04 04:36:00,74.1,72.9,29.96,SSW,193,0.0,0.0,96,0.00,,,0.00,meteobridge,2015-08-04 09:36:00,
2015-08-04 04:41:00,74.1,72.9,29.96,SSW,193,0.0,0.0,96,0.00,,,0.00,meteobridge,2015-08-04 09:41:00,
2015-08-04 04:46:00,74.1,72.9,29.96,SSW,193,0.0,0.0,96,0.00,,,0.00,meteobridge,2015-08-04 09:46:00,
2015-08-04 04:52:00,74.1,72.9,29.97,SSW,194,0.0,0.0,96,0.00,,,0.00,meteobridge,2015-08-04 09:52:00,
2015-08-04 04:57:00,73.9,72.7,29.97,SSW,193,0.0,0.0,96,0.00,,,0.00,meteobridge,2015-08-04 09:57:00,
2015-08-04 05:02:00,73.8,72.5,29.98,SSW,194,0.0,0.0,96,0.00,,,0.00,meteobridge,2015-08-04 10:02:00,
2015-08-04 05:07:00,73.9,72.7,29.98,SSE,151,0.0,0.0,96,0.00,,,0.00,meteobridge,2015-08-04 10:07:00,
2015-08-04 05:12:00,73.9,72.7,29.98,SSE,151,0.0,0.0,96,0.00,,,0.00,meteobridge,2015-08-04 10:12:00,
2015-08-04 05:17:00,73.9,72.7,29.98,SSE,151,0.0,0.0,96,0.00,,,0.00,meteobridge,2015-08-04 10:17:00,
2015-08-04 05:22:00,73.9,73.0,29.98,SSE,151,0.0,0.0,97,0.00,,,0.00,meteobridge,2015-08-04 10:22:00,
2015-08-04 05:27:00,74.1,72.9,29.98,SSE,151,0.0,0.0,96,0.00,,,0.00,meteobridge,2015-08-04 10:27:00,
2015-08-04 05:32:00,74.1,73.2,29.98,SSE,151,0.0,0.0,97,0.00,,,0.00,meteobridge,2015-08-04 10:32:00,
2015-08-04 05:37:00,74.3,73.4,29.99,SSE,152,0.0,0.0,97,0.00,,,0.00,meteobridge,2015-08-04 10:37:00,
2015-08-04 05:42:00,74.3,73.4,29.99,SSE,151,0.0,0.0,97,0.00,,,0.00,meteobridge,2015-08-04 10:42:00,
2015-08-04 05:47:00,74.1,72.9,29.99,SSE,151,0.0,0.0,96,0.00,,,0.00,meteobridge,2015-08-04 10:47:00,
2015-08-04 05:52:00,73.9,72.7,29.99,SSE,151,0.0,0.0,96,0.00,,,0.00,meteobridge,2015-08-04 10:52:00,
2015-08-04 05:57:00,73.8,72.5,29.99,SSE,151,0.0,0.0,96,0.00,,,0.00,meteobridge,2015-08-04 10:57:00,
2015-08-04 06:02:00,73.8,72.5,29.99,SSE,151,0.0,0.0,96,0.00,,,0.00,meteobridge,2015-08-04 11:02:00,
2015-08-04 06:07:00,73.8,72.5,30.00,SSE,151,0.0,0.0,96,0.00,,,0.00,meteobridge,2015-08-04 11:07:00,
2015-08-04 06:12:00,73.8,72.5,30.00,SSE,151,0.0,0.0,96,0.00,,,0.00,meteobridge,2015-08-04 11:12:00,
2015-08-04 06:17:00,73.8,72.5,30.00,SSE,151,0.0,0.0,96,0.00,,,0.00,meteobridge,2015-08-04 11:17:00,
2015-08-04 06:22:00,73.8,72.5,30.00,SSE,151,0.0,0.0,96,0.00,,,0.00,meteobridge,2015-08-04 11:22:00,
2015-08-04 06:27:00,73.8,72.5,30.00,SSE,151,0.0,0.0,96,0.00,,,0.00,meteobridge,2015-08-04 11:27:00,
2015-08-04 06:32:00,73.8,72.5,30.00,SSE,151,0.0,0.0,96,0.00,,,0.00,meteobridge,2015-08-04 11:32:00,
2015-08-04 06:37:00,74.1,73.2,30.00,SSE,151,0.0,0.0,97,0.00,,,0.00,meteobridge,2015-08-04 11:37:00,
2015-08-04 06:42:00,74.7,73.4,30.01,SSE,151,0.0,0.0,96,0.00,,,0.00,meteobridge,2015-08-04 11:42:00,
2015-08-04 06:47:00,75.0,73.8,30.01,SSE,151,0.0,0.0,96,0.00,,,0.00,meteobridge,2015-08-04 11:47:00,
2015-08-04 06:52:00,75.7,74.5,30.01,SSE,151,0.0,0.0,96,0.00,,,0.00,meteobridge,2015-08-04 11:52:00,
2015-08-04 06:57:00,76.5,74.8,30.01,SSE,152,0.0,0.0,95,0.00,,,0.00,meteobridge,2015-08-04 11:57:00,
2015-08-04 07:02:00,77.2,75.4,30.01,SSE,151,0.0,0.0,94,0.00,,,0.00,meteobridge,2015-08-04 12:02:00,
2015-08-04 07:07:00,77.7,75.6,30.01,WSW,240,0.0,1.0,93,0.00,,,0.00,meteobridge,2015-08-04 12:07:00,
2015-08-04 07:13:00,78.4,75.9,30.01,WSW,239,0.0,1.0,92,0.00,,,0.00,meteobridge,2015-08-04 12:13:00,
2015-08-04 07:18:00,78.6,76.1,30.01,West,278,0.0,2.0,92,0.00,,,0.00,meteobridge,2015-08-04 12:18:00,
2015-08-04 07:23:00,78.8,76.3,30.01,WNW,290,0.0,1.0,92,0.00,,,0.00,meteobridge,2015-08-04 12:23:00,
2015-08-04 07:28:00,79.2,76.3,30.01,WSW,255,0.0,2.0,91,0.00,,,0.00,meteobridge,2015-08-04 12:28:00,
2015-08-04 07:33:00,79.3,76.5,30.01,NW,307,0.0,2.0,91,0.00,,,0.00,meteobridge,2015-08-04 12:33:00,
2015-08-04 07:38:00,79.9,77.0,30.01,WSW,238,0.0,2.0,91,0.00,,,0.00,meteobridge,2015-08-04 12:38:00,
2015-08-04 07:43:00,80.4,77.2,30.01,SW,226,0.0,0.0,90,0.00,,,0.00,meteobridge,2015-08-04 12:43:00,
2015-08-04 07:48:00,80.8,77.2,30.01,West,265,0.9,3.0,89,0.00,,,0.00,meteobridge,2015-08-04 12:48:00,
2015-08-04 07:53:00,81.3,77.4,30.01,WNW,286,0.0,1.0,88,0.00,,,0.00,meteobridge,2015-08-04 12:53:00,
2015-08-04 07:58:00,82.2,77.9,30.01,WNW,285,0.9,1.0,87,0.00,,,0.00,meteobridge,2015-08-04 12:58:00,
2015-08-04 08:03:00,82.6,77.5,30.01,NNE,17,0.0,3.0,85,0.00,,,0.00,meteobridge,2015-08-04 13:03:00,
2015-08-04 08:08:00,82.8,77.0,30.02,SSW,199,0.9,4.0,83,0.00,,,0.00,meteobridge,2015-08-04 13:08:00,
2015-08-04 08:13:00,83.3,77.5,30.02,SE,146,0.0,4.0,83,0.00,,,0.00,meteobridge,2015-08-04 13:13:00,
2015-08-04 08:18:00,83.3,77.2,30.01,SW,229,0.0,3.0,82,0.00,,,0.00,meteobridge,2015-08-04 13:18:00,
2015-08-04 08:23:00,83.8,77.4,30.02,NE,41,0.0,2.0,81,0.00,,,0.00,meteobridge,2015-08-04 13:23:00,
2015-08-04 08:28:00,84.4,77.5,30.02,WSW,258,0.0,3.0,80,0.00,,,0.00,meteobridge,2015-08-04 13:28:00,
2015-08-04 08:33:00,84.4,77.9,30.02,West,276,0.9,3.0,81,0.00,,,0.00,meteobridge,2015-08-04 13:33:00,
2015-08-04 08:38:00,84.7,77.5,30.02,WSW,255,0.0,2.0,79,0.00,,,0.00,meteobridge,2015-08-04 13:38:00,
2015-08-04 08:43:00,84.9,77.4,30.02,WNW,288,2.9,4.0,78,0.00,,,0.00,meteobridge,2015-08-04 13:43:00,
2015-08-04 08:48:00,85.1,78.3,30.02,WSW,247,0.9,2.0,80,0.00,,,0.00,meteobridge,2015-08-04 13:48:00,
2015-08-04 08:53:00,85.5,77.4,30.02,SSW,204,0.0,4.0,77,0.00,,,0.00,meteobridge,2015-08-04 13:53:00,
2015-08-04 08:58:00,85.8,78.1,30.02,WNW,289,2.0,4.0,78,0.00,,,0.00,meteobridge,2015-08-04 13:58:00,
2015-08-04 09:03:00,86.2,78.4,30.01,ESE,118,0.0,1.0,78,0.00,,,0.00,meteobridge,2015-08-04 14:03:00,
2015-08-04 09:08:00,86.5,77.7,30.02,NNE,13,0.9,4.0,75,0.00,,,0.00,meteobridge,2015-08-04 14:08:00,
2015-08-04 09:13:00,86.7,78.3,30.02,NNW,334,0.0,2.0,76,0.00,,,0.00,meteobridge,2015-08-04 14:13:00,
2015-08-04 09:18:00,87.3,78.8,30.02,SW,218,2.0,3.0,76,0.00,,,0.00,meteobridge,2015-08-04 14:18:00,
2015-08-04 09:24:00,87.8,78.4,30.02,SE,146,0.0,3.0,74,0.00,,,0.00,meteobridge,2015-08-04 14:24:00,
2015-08-04 09:29:00,88.2,78.4,30.02,SSW,207,0.0,2.0,73,0.00,,,0.00,meteobridge,2015-08-04 14:29:00,
2015-08-04 09:34:00,88.0,78.3,30.02,WSW,256,0.0,4.0,73,0.00,,,0.00,meteobridge,2015-08-04 14:34:00,
2015-08-04 09:39:00,88.0,78.3,30.02,North,1,2.0,4.0,73,0.00,,,0.00,meteobridge,2015-08-04 14:39:00,
2015-08-04 09:44:00,88.0,78.3,30.02,WSW,254,0.9,3.0,73,0.00,,,0.00,meteobridge,2015-08-04 14:44:00,
2015-08-04 09:49:00,88.7,77.7,30.02,WSW,257,2.0,3.0,70,0.00,,,0.00,meteobridge,2015-08-04 14:49:00,
2015-08-04 09:54:00,88.9,78.3,30.02,SW,236,0.0,2.0,71,0.00,,,0.00,meteobridge,2015-08-04 14:54:00,
2015-08-04 09:59:00,89.2,78.1,30.02,SW,235,0.9,2.0,70,0.00,,,0.00,meteobridge,2015-08-04 14:59:00,
2015-08-04 10:04:00,89.4,77.9,30.02,West,280,0.9,4.0,69,0.00,,,0.00,meteobridge,2015-08-04 15:04:00,
2015-08-04 10:09:00,89.4,77.0,30.02,WNW,285,2.0,3.0,67,0.00,,,0.00,meteobridge,2015-08-04 15:09:00,
2015-08-04 10:14:00,90.0,77.5,30.02,SE,136,0.0,2.0,67,0.00,,,0.00,meteobridge,2015-08-04 15:14:00,
2015-08-04 10:19:00,90.1,77.2,30.02,ESE,121,0.0,3.0,66,0.00,,,0.00,meteobridge,2015-08-04 15:19:00,
2015-08-04 10:24:00,90.9,77.0,30.02,NW,311,0.9,4.0,64,0.00,,,0.00,meteobridge,2015-08-04 15:24:00,
2015-08-04 10:29:00,91.2,73.8,30.02,West,276,4.0,5.0,57,0.00,,,0.00,meteobridge,2015-08-04 15:29:00,
2015-08-04 10:34:00,91.0,74.1,30.02,WNW,295,0.0,5.0,58,0.00,,,0.00,meteobridge,2015-08-04 15:34:00,
2015-08-04 10:39:00,91.2,72.9,30.02,SW,230,4.0,6.0,55,0.00,,,0.00,meteobridge,2015-08-04 15:39:00,
2015-08-04 10:44:00,91.6,74.1,30.02,NW,307,4.0,4.0,57,0.00,,,0.00,meteobridge,2015-08-04 15:44:00,
2015-08-04 10:49:00,91.6,74.1,30.02,South,174,0.0,4.0,57,0.00,,,0.00,meteobridge,2015-08-04 15:49:00,
2015-08-04 10:54:00,91.9,73.9,30.02,WSW,257,2.0,5.0,56,0.00,,,0.00,meteobridge,2015-08-04 15:54:00,
2015-08-04 10:59:00,91.9,75.0,30.02,WNW,293,2.9,3.0,58,0.00,,,0.00,meteobridge,2015-08-04 15:59:00,
2015-08-04 11:04:00,92.3,74.8,30.02,South,184,2.0,4.0,57,0.00,,,0.00,meteobridge,2015-08-04 16:04:00,
2015-08-04 11:09:00,92.8,74.3,30.02,SSE,159,2.9,6.0,55,0.00,,,0.00,meteobridge,2015-08-04 16:09:00,
2015-08-04 11:14:00,92.8,73.8,30.02,North,7,2.0,3.0,54,0.00,,,0.00,meteobridge,2015-08-04 16:14:00,
2015-08-04 11:19:00,93.0,73.9,30.02,ESE,113,2.0,2.0,54,0.00,,,0.00,meteobridge,2015-08-04 16:19:00,
2015-08-04 11:24:00,93.2,74.1,30.02,North,359,0.0,4.0,54,0.00,,,0.00,meteobridge,2015-08-04 16:24:00,
2015-08-04 11:29:00,93.4,73.8,30.02,NNE,30,2.0,4.0,53,0.00,,,0.00,meteobridge,2015-08-04 16:29:00,
2015-08-04 11:34:00,93.9,73.6,30.02,WSW,251,2.0,4.0,52,0.00,,,0.00,meteobridge,2015-08-04 16:34:00,
2015-08-04 11:39:00,93.6,73.8,30.02,West,266,0.0,3.0,53,0.00,,,0.00,meteobridge,2015-08-04 16:39:00,
2015-08-04 11:44:00,93.6,73.8,30.02,WSW,245,2.0,4.0,53,0.00,,,0.00,meteobridge,2015-08-04 16:44:00,
2015-08-04 11:49:00,93.6,74.5,30.02,SSW,208,2.0,6.0,54,0.00,,,0.00,meteobridge,2015-08-04 16:49:00,
2015-08-04 11:54:00,93.6,73.2,30.02,North,4,2.0,6.0,52,0.00,,,0.00,meteobridge,2015-08-04 16:54:00,
2015-08-04 11:59:00,93.9,71.8,30.03,WSW,248,2.0,3.0,49,0.00,,,0.00,meteobridge,2015-08-04 16:59:00,
2015-08-04 12:04:00,94.6,72.5,30.02,West,268,4.0,5.0,49,0.00,,,0.00,meteobridge,2015-08-04 17:04:00,
2015-08-04 12:10:00,94.6,73.0,30.02,West,265,4.0,6.0,50,0.00,,,0.00,meteobridge,2015-08-04 17:10:00,
2015-08-04 12:15:00,94.3,72.9,30.02,WNW,298,2.9,6.0,50,0.00,,,0.00,meteobridge,2015-08-04 17:15:00,
2015-08-04 12:20:00,94.5,72.3,30.02,West,259,2.9,6.0,49,0.00,,,0.00,meteobridge,2015-08-04 17:20:00,
2015-08-04 12:25:00,94.8,73.2,30.02,WSW,251,0.0,6.0,50,0.00,,,0.00,meteobridge,2015-08-04 17:25:00,
2015-08-04 12:30:00,95.7,74.7,30.02,West,259,0.0,4.0,51,0.00,,,0.00,meteobridge,2015-08-04 17:30:00,
2015-08-04 12:35:00,96.4,74.1,30.02,NNE,26,2.0,8.0,49,0.00,,,0.00,meteobridge,2015-08-04 17:35:00,
2015-08-04 12:40:00,96.3,72.7,30.02,SW,231,2.0,7.0,47,0.00,,,0.00,meteobridge,2015-08-04 17:40:00,
2015-08-04 12:45:00,96.1,72.5,30.01,West,278,0.9,3.0,47,0.00,,,0.00,meteobridge,2015-08-04 17:45:00,
2015-08-04 12:50:00,96.4,72.9,30.01,NW,323,2.9,5.0,47,0.00,,,0.00,meteobridge,2015-08-04 17:50:00,
2015-08-04 12:55:00,96.4,73.6,30.01,North,6,2.0,3.0,48,0.00,,,0.00,meteobridge,2015-08-04 17:55:00,
2015-08-04 13:00:00,96.6,72.5,30.01,West,277,2.0,6.0,46,0.00,,,0.00,meteobridge,2015-08-04 18:00:00,
2015-08-04 13:05:00,96.4,72.9,30.01,West,271,2.9,5.0,47,0.00,,,0.00,meteobridge,2015-08-04 18:05:00,
2015-08-04 13:10:00,96.3,72.7,30.01,WSW,238,2.0,7.0,47,0.00,,,0.00,meteobridge,2015-08-04 18:10:00,
2015-08-04 13:15:00,96.4,72.9,30.00,WSW,247,6.0,9.0,47,0.00,,,0.00,meteobridge,2015-08-04 18:15:00,
2015-08-04 13:20:00,96.4,72.9,30.00,WSW,249,0.9,2.0,47,0.00,,,0.00,meteobridge,2015-08-04 18:20:00,
2015-08-04 13:25:00,97.0,72.1,30.00,NE,51,2.0,4.0,45,0.00,,,0.00,meteobridge,2015-08-04 18:25:00,
2015-08-04 13:30:00,97.3,71.8,30.00,ENE,61,0.0,3.0,44,0.00,,,0.00,meteobridge,2015-08-04 18:30:00,
2015-08-04 13:35:00,97.7,71.4,30.00,WNW,286,2.0,4.0,43,0.00,,,0.00,meteobridge,2015-08-04 18:35:00,
2015-08-04 13:40:00,97.7,72.1,30.00,WNW,302,0.0,2.0,44,0.00,,,0.00,meteobridge,2015-08-04 18:40:00,
2015-08-04 13:45:00,98.1,72.5,29.99,SSW,203,2.0,3.0,44,0.00,,,0.00,meteobridge,2015-08-04 18:45:00,
2015-08-04 13:50:00,98.2,73.2,29.99,WNW,300,0.0,7.0,45,0.00,,,0.00,meteobridge,2015-08-04 18:50:00,
2015-08-04 13:55:00,98.2,70.5,29.99,SE,129,0.9,4.0,41,0.00,,,0.00,meteobridge,2015-08-04 18:55:00,
2015-08-04 14:00:00,96.8,75.0,29.99,SW,229,6.9,12.0,50,0.00,,,0.00,meteobridge,2015-08-04 19:00:00,
2015-08-04 14:05:00,94.5,74.7,29.99,SSE,167,8.1,9.0,53,0.00,,,0.00,meteobridge,2015-08-04 19:05:00,
2015-08-04 14:10:00,93.6,75.0,30.00,ESE,122,4.0,8.0,55,0.00,,,0.00,meteobridge,2015-08-04 19:10:00,
2015-08-04 14:15:00,93.2,74.1,29.99,ESE,117,4.0,10.0,54,0.00,,,0.00,meteobridge,2015-08-04 19:15:00,
2015-08-04 14:20:00,93.0,73.4,30.00,South,169,6.9,11.0,53,0.00,,,0.00,meteobridge,2015-08-04 19:20:00,
2015-08-04 14:25:00,91.6,72.5,30.00,South,174,10.1,14.0,54,0.00,,,0.00,meteobridge,2015-08-04 19:25:00,
2015-08-04 14:30:00,90.9,72.5,30.00,SSE,155,4.0,11.0,55,0.00,,,0.00,meteobridge,2015-08-04 19:30:00,
2015-08-04 14:36:00,91.2,72.9,29.99,SE,124,4.9,5.0,55,0.00,,,0.00,meteobridge,2015-08-04 19:36:00,
2015-08-04 14:41:00,91.6,72.5,30.00,SE,141,4.9,10.0,54,0.00,,,0.00,meteobridge,2015-08-04 19:41:00,
2015-08-04 14:46:00,91.8,71.6,29.99,SSE,160,2.0,6.0,52,0.00,,,0.00,meteobridge,2015-08-04 19:46:00,
2015-08-04 14:51:00,92.1,71.4,29.99,SE,129,2.0,8.0,51,0.00,,,0.00,meteobridge,2015-08-04 19:51:00,
2015-08-04 14:56:00,91.8,72.1,29.99,East,94,6.0,12.0,53,0.00,,,0.00,meteobridge,2015-08-04 19:56:00,
2015-08-04 15:01:00,89.8,73.0,29.99,SE,138,4.0,14.0,58,0.00,,,0.00,meteobridge,2015-08-04 20:01:00,
2015-08-04 15:06:00,88.5,72.9,29.99,SSE,152,8.1,12.0,60,0.00,,,0.00,meteobridge,2015-08-04 20:06:00,
2015-08-04 15:11:00,88.2,73.0,29.99,East,101,6.0,10.0,61,0.00,,,0.00,meteobridge,2015-08-04 20:11:00,
2015-08-04 15:16:00,86.7,72.1,30.00,East,86,6.9,12.0,62,0.00,,,0.00,meteobridge,2015-08-04 20:16:00,
2015-08-04 15:21:00,84.9,70.5,30.00,SSE,163,2.9,10.0,62,0.00,,,0.00,meteobridge,2015-08-04 20:21:00,
2015-08-04 15:26:00,82.4,68.5,30.01,SSE,147,12.1,17.0,63,0.00,,,0.00,meteobridge,2015-08-04 20:26:00,
2015-08-04 15:31:00,80.1,68.9,30.01,SSE,149,2.0,4.0,69,0.00,,,0.00,meteobridge,2015-08-04 20:31:00,
2015-08-04 15:36:00,79.0,70.3,30.01,SSE,168,4.0,11.0,75,0.00,,,0.00,meteobridge,2015-08-04 20:36:00,
2015-08-04 15:41:00,77.4,71.1,30.00,ENE,72,2.0,6.0,81,0.02,,,0.02,meteobridge,2015-08-04 20:41:00,
2015-08-04 15:46:00,77.2,71.2,29.99,SSE,155,0.9,2.0,82,0.02,,,0.02,meteobridge,2015-08-04 20:46:00,
2015-08-04 15:51:00,77.7,71.4,29.99,South,190,0.9,5.0,81,0.02,,,0.02,meteobridge,2015-08-04 20:51:00,
2015-08-04 15:56:00,78.8,71.4,29.99,SSE,167,2.0,3.0,78,0.02,,,0.02,meteobridge,2015-08-04 20:56:00,
2015-08-04 16:01:00,79.9,71.2,29.99,SSE,157,0.9,2.0,75,0.02,,,0.02,meteobridge,2015-08-04 21:01:00,
2015-08-04 16:06:00,80.8,72.5,29.99,WNW,288,0.0,1.0,76,0.02,,,0.02,meteobridge,2015-08-04 21:06:00,
2015-08-04 16:11:00,80.6,72.3,30.00,WSW,248,0.9,2.0,76,0.02,,,0.02,meteobridge,2015-08-04 21:11:00,
2015-08-04 16:16:00,80.2,72.0,29.99,NNW,342,0.0,1.0,76,0.02,,,0.02,meteobridge,2015-08-04 21:16:00,
2015-08-04 16:26:00,80.8,73.2,30.00,NNW,343,0.9,4.0,78,0.02,,,0.02,meteobridge,2015-08-04 21:26:00,
2015-08-04 16:31:00,81.0,73.0,30.01,NE,39,0.0,1.0,77,0.02,,,0.02,meteobridge,2015-08-04 21:31:00,
2015-08-04 16:36:00,81.7,73.0,30.00,SW,235,0.0,1.0,75,0.02,,,0.02,meteobridge,2015-08-04 21:36:00,
2015-08-04 16:41:00,81.9,73.6,30.00,WSW,247,0.9,1.0,76,0.00,,,0.02,meteobridge,2015-08-04 21:41:00,
2015-08-04 16:46:00,81.7,74.1,30.00,SSW,212,0.0,1.0,78,0.00,,,0.02,meteobridge,2015-08-04 21:46:00,
2015-08-04 16:51:00,81.5,74.7,30.00,WSW,258,0.9,1.0,80,0.00,,,0.02,meteobridge,2015-08-04 21:51:00,
2015-08-04 16:56:00,81.1,74.7,30.01,West,271,0.0,2.0,81,0.00,,,0.02,meteobridge,2015-08-04 21:56:00,
2015-08-04 17:01:00,81.7,75.6,30.00,WNW,283,0.0,1.0,82,0.00,,,0.02,meteobridge,2015-08-04 22:01:00,
2015-08-04 17:06:00,81.3,75.7,30.00,South,189,0.0,1.0,83,0.00,,,0.02,meteobridge,2015-08-04 22:06:00,
2015-08-04 17:11:00,80.8,75.6,30.00,WSW,242,0.9,2.0,84,0.00,,,0.02,meteobridge,2015-08-04 22:11:00,
2015-08-04 17:17:00,80.1,75.6,30.01,West,268,0.9,3.0,86,0.00,,,0.02,meteobridge,2015-08-04 22:17:00,
2015-08-04 17:22:00,79.7,75.6,30.00,SW,233,0.0,1.0,87,0.00,,,0.02,meteobridge,2015-08-04 22:22:00,
2015-08-04 17:27:00,79.5,75.0,30.00,SE,132,0.9,1.0,86,0.00,,,0.02,meteobridge,2015-08-04 22:27:00,
2015-08-04 17:32:00,79.3,75.2,30.00,West,267,0.0,1.0,87,0.00,,,0.02,meteobridge,2015-08-04 22:32:00,
2015-08-04 17:37:00,79.2,75.0,30.00,SW,219,0.0,1.0,87,0.00,,,0.02,meteobridge,2015-08-04 22:37:00,
2015-08-04 17:42:00,79.0,74.5,29.99,SW,221,0.0,2.0,86,0.00,,,0.02,meteobridge,2015-08-04 22:42:00,
2015-08-04 17:47:00,79.0,74.8,29.99,SSW,207,0.0,0.0,87,0.00,,,0.02,meteobridge,2015-08-04 22:47:00,
2015-08-04 17:52:00,79.2,75.0,29.98,SE,146,0.0,2.0,87,0.00,,,0.02,meteobridge,2015-08-04 22:52:00,
2015-08-04 17:57:00,79.2,75.0,29.98,WNW,297,0.0,0.0,87,0.00,,,0.02,meteobridge,2015-08-04 22:57:00,
2015-08-04 18:02:00,79.3,74.8,29.98,WNW,297,0.0,0.0,86,0.00,,,0.02,meteobridge,2015-08-04 23:02:00,
2015-08-04 18:07:00,79.5,74.7,29.99,SW,214,0.0,1.0,85,0.00,,,0.02,meteobridge,2015-08-04 23:07:00,
2015-08-04 18:12:00,79.9,75.4,29.99,South,176,0.0,0.0,86,0.00,,,0.02,meteobridge,2015-08-04 23:12:00,
2015-08-04 18:17:00,80.4,75.6,29.99,WNW,295,0.0,1.0,85,0.00,,,0.02,meteobridge,2015-08-04 23:17:00,
2015-08-04 18:22:00,80.8,75.6,29.99,SE,131,0.0,2.0,84,0.00,,,0.02,meteobridge,2015-08-04 23:22:00,
2015-08-04 18:27:00,80.8,75.6,29.99,SE,140,0.0,1.0,84,0.00,,,0.02,meteobridge,2015-08-04 23:27:00,
2015-08-04 18:32:00,80.8,75.6,29.99,SSE,160,0.0,0.0,84,0.00,,,0.02,meteobridge,2015-08-04 23:32:00,
2015-08-04 18:37:00,81.0,75.7,30.00,West,281,0.0,0.0,84,0.00,,,0.02,meteobridge,2015-08-04 23:37:00,
2015-08-04 18:43:00,81.0,75.7,29.99,South,169,0.0,0.0,84,0.00,,,0.02,meteobridge,2015-08-04 23:43:00,
2015-08-04 18:48:00,81.0,75.7,30.00,SSE,151,0.0,1.0,84,0.00,,,0.02,meteobridge,2015-08-04 23:48:00,
2015-08-04 18:53:00,81.0,76.1,30.00,SE,127,0.0,0.0,85,0.00,,,0.02,meteobridge,2015-08-04 23:53:00,
2015-08-04 18:58:00,80.8,75.9,30.00,SE,133,0.0,0.0,85,0.00,,,0.02,meteobridge,2015-08-04 23:58:00,
2015-08-04 19:03:00,80.8,75.9,30.00,SE,134,0.0,1.0,85,0.00,,,0.02,meteobridge,2015-08-05 00:03:00,
2015-08-04 19:08:00,80.6,75.7,30.00,SE,134,0.0,0.0,85,0.00,,,0.02,meteobridge,2015-08-05 00:08:00,
2015-08-04 19:13:00,80.4,75.9,30.00,SE,134,0.0,0.0,86,0.00,,,0.02,meteobridge,2015-08-05 00:13:00,
2015-08-04 19:18:00,80.4,75.9,30.00,SE,134,0.0,0.0,86,0.00,,,0.02,meteobridge,2015-08-05 00:18:00,
2015-08-04 19:23:00,80.2,76.1,30.00,SE,134,0.0,0.0,87,0.00,,,0.02,meteobridge,2015-08-05 00:23:00,
2015-08-04 19:28:00,80.1,75.9,30.01,SE,133,0.0,0.0,87,0.00,,,0.02,meteobridge,2015-08-05 00:28:00,
2015-08-04 19:33:00,79.9,75.7,30.01,SE,134,0.0,0.0,87,0.00,,,0.02,meteobridge,2015-08-05 00:33:00,
2015-08-04 19:38:00,79.7,75.6,30.01,SE,135,0.0,0.0,87,0.00,,,0.02,meteobridge,2015-08-05 00:38:00,
2015-08-04 19:43:00,79.5,75.4,30.01,SE,135,0.0,0.0,87,0.00,,,0.02,meteobridge,2015-08-05 00:43:00,
2015-08-04 19:48:00,79.2,75.4,30.01,SE,135,0.0,0.0,88,0.00,,,0.02,meteobridge,2015-08-05 00:48:00,
2015-08-04 19:53:00,79.0,75.4,30.01,SE,136,0.0,0.0,89,0.00,,,0.02,meteobridge,2015-08-05 00:53:00,
2015-08-04 19:58:00,78.6,75.4,30.01,SE,130,0.0,1.0,90,0.00,,,0.02,meteobridge,2015-08-05 00:58:00,
2015-08-04 20:03:00,78.6,75.4,30.01,SE,139,0.0,1.0,90,0.00,,,0.02,meteobridge,2015-08-05 01:03:00,
2015-08-04 20:08:00,78.6,75.0,30.02,SE,138,0.0,2.0,89,0.00,,,0.02,meteobridge,2015-08-05 01:08:00,
2015-08-04 20:13:00,78.6,75.0,30.02,SSE,164,0.9,2.0,89,0.00,,,0.02,meteobridge,2015-08-05 01:13:00,
2015-08-04 20:18:00,78.6,75.0,30.02,SE,131,0.0,2.0,89,0.00,,,0.02,meteobridge,2015-08-05 01:18:00,
2015-08-04 20:23:00,78.6,75.0,30.02,ESE,115,0.9,1.0,89,0.00,,,0.02,meteobridge,2015-08-05 01:23:00,
2015-08-04 20:28:00,78.6,74.8,30.02,SW,216,0.0,2.0,88,0.00,,,0.02,meteobridge,2015-08-05 01:28:00,
2015-08-04 20:33:00,78.4,74.7,30.02,ESE,105,2.0,3.0,88,0.00,,,0.02,meteobridge,2015-08-05 01:33:00,
2015-08-04 20:38:00,78.4,74.8,30.02,SSE,153,0.0,1.0,89,0.00,,,0.02,meteobridge,2015-08-05 01:38:00,
2015-08-04 20:43:00,78.3,74.7,30.02,SE,131,0.0,0.0,89,0.00,,,0.02,meteobridge,2015-08-05 01:43:00,
2015-08-04 20:48:00,78.3,74.7,30.02,ESE,120,0.0,1.0,89,0.00,,,0.02,meteobridge,2015-08-05 01:48:00,
2015-08-04 20:53:00,78.1,74.5,30.02,SE,145,0.0,1.0,89,0.00,,,0.02,meteobridge,2015-08-05 01:53:00,
2015-08-04 20:59:00,78.1,74.5,30.03,SSE,153,0.0,0.0,89,0.00,,,0.02,meteobridge,2015-08-05 01:59:00,
2015-08-04 21:04:00,78.1,74.5,30.02,SSE,152,0.0,0.0,89,0.00,,,0.02,meteobridge,2015-08-05 02:04:00,
2015-08-04 21:09:00,77.9,74.7,30.03,SSE,152,0.0,0.0,90,0.00,,,0.02,meteobridge,2015-08-05 02:09:00,
2015-08-04 21:14:00,77.7,74.5,30.03,SSE,152,0.0,0.0,90,0.00,,,0.02,meteobridge,2015-08-05 02:14:00,
2015-08-04 21:19:00,77.7,74.5,30.03,SSE,152,0.0,0.0,90,0.00,,,0.02,meteobridge,2015-08-05 02:19:00,
2015-08-04 21:29:00,77.4,74.5,30.03,SSE,153,0.0,0.0,91,0.00,,,0.02,meteobridge,2015-08-05 02:29:00,
2015-08-04 21:34:00,77.4,74.5,30.03,SSE,152,0.0,0.0,91,0.00,,,0.02,meteobridge,2015-08-05 02:34:00,
2015-08-04 21:39:00,77.2,74.7,30.03,SSE,152,0.0,0.0,92,0.00,,,0.02,meteobridge,2015-08-05 02:39:00,
2015-08-04 21:44:00,77.2,74.7,30.03,SSE,152,0.0,0.0,92,0.00,,,0.02,meteobridge,2015-08-05 02:44:00,
2015-08-04 21:49:00,77.2,74.7,30.03,SSE,152,0.0,0.0,92,0.00,,,0.02,meteobridge,2015-08-05 02:49:00,
2015-08-04 21:54:00,77.2,74.7,30.04,SSE,152,0.0,0.0,92,0.00,,,0.02,meteobridge,2015-08-05 02:54:00,
2015-08-04 21:59:00,77.0,74.5,30.04,SSE,152,0.0,0.0,92,0.00,,,0.02,meteobridge,2015-08-05 02:59:00,
2015-08-04 22:04:00,76.8,74.3,30.04,SSE,152,0.0,0.0,92,0.00,,,0.02,meteobridge,2015-08-05 03:04:00,
2015-08-04 22:09:00,76.8,74.3,30.04,SSE,152,0.0,0.0,92,0.00,,,0.02,meteobridge,2015-08-05 03:09:00,